Tracking 19572 objects as of 23-Feb-2019
HD Live streaming from Space Station
objects crossing your sky now

FLOCK 3P 51

Track FLOCK 3P 51 now!
10-day predictions
FLOCK 3P 51 is classified as:


NORAD ID: 41952
Int'l Code: 2017-008E
Perigee: 492.6 km
Apogee: 503.0 km
Inclination: 97.4 °
Period: 94.4 minutes
Semi major axis: 6868 km
RCS: Unknown
Launch date: February 15, 2017
Source: United States (US)
Launch site: SRIHARIKOTA (SRI)
aabbcc
Your satellite tracking list
Your tracking list is empty




NASA's NSSDC Master Catalog

Two Line Element Set (TLE):
1 41952U 17008E   19053.61525749  .00001254  00000-0  53066-4 0  9990
2 41952  97.4206 121.8077 0007564 196.3709 163.7286 15.25050779112260
Source of the keplerian elements: AFSPC